Regional Weather Roundup
Issued by NWS Charleston, SC

Current Version | Previous Version | Graphics & Text | Print | Product List | Glossary On
Versions: 1 2 3 4 5 6 7 8 9 10 11 12 13 14 15 16 17 18 19 20 21 22 23 24 25 26 27 28 29 30 31 32 33 34 35 36 37 38 39 40 41 42 43 44 45 46 47 48 49 50
000
ASUS42 KCHS 282128
RWRCHS

REGIONAL WEATHER ROUNDUP
NATIONAL WEATHER SERVICE CHARLESTON SC
500 PM EDT WED SEP 28 2016

NOTE: "FAIR" INDICATES FEW OR NO CLOUDS BELOW 12,000 FEET WITH NO
SIGNIFICANT WEATHER AND/OR OBSTRUCTIONS TO VISIBILITY.

NOT ALL STATIONS ARE QUALITY CONTROLLED. USE DATA WITH CAUTION...
ESPECIALLY DEWPOINT OBSERVATIONS.

SCZ027-030-031-034>040-042>050-282200-
...SOUTHEAST SOUTH CAROLINA...

CITY           SKY/WX    TMP DP  RH WIND       PRES   REMARKS
N CHARLESTON   MOSUNNY   86  70  58 S14       29.91F HX  90
WATERFRONT PRK   N/A     83  75  76 S12       29.91F HX  90
MOUNT PLEASANT FAIR      84  75  74 S9        29.92F HX  92
JOHNS ISLAND   FAIR      84  75  74 S13       29.92S HX  92
PINOPOLIS        N/A     88  72  58 VRB3      29.84F HX  94
MONCKS CORNER  FAIR      84  70  61 S9        29.90F
SUMMERVILLE    NOT AVBL
BEAUFORT MCAS  MOSUNNY   86  75  69 SE7       29.91F HX  95
BEAUFORT ARPT  FAIR      84  73  70 S9        29.91S HX  91
HILTON HEAD IS SUNNY     88  77  70 S14G21    29.93F HX 100
WALTERBORO     PTCLDY    90  70  51 S10       29.90F HX  95
ALLENDALE      FAIR      88  68  51 S7G15     29.88F HX  91

...SOUTHERN MIDLANDS AND PEE DEE...

CITY           SKY/WX    TMP DP  RH WIND       PRES   REMARKS
GEORGETOWN     FAIR      82  72  69 S7        29.93S
KINGSTREE      FAIR      86  70  58 SE12      29.89S HX  90
ORANGEBURG     CLOUDY    87  68  52 S14       29.89F HX  90
BARNWELL       NOT AVBL
AIKEN          FAIR      86  66  51 S9        29.91S
MANNING        FAIR      86  70  58 S7        29.88F HX  90
COLUMBIA       HVY RAIN  81  72  74 W7G26     29.86F
SUMTER         MOSUNNY   87  68  52 S10       29.85F HX  91
FLORENCE       MOSUNNY   88  69  53 S16       29.88S HX  92
MYRTLE BEACH   MOSUNNY   84  68  58 S16       29.93F
N MYRTLE BEACH MOSUNNY   82  72  71 S12       29.92F

$$

GAZ063-065-086>088-099>101-113>116-118-119-134>141-150-282200-
...SOUTHEAST GEORGIA...

CITY           SKY/WX    TMP DP  RH WIND       PRES   REMARKS
SAVANNAH ARPT  MOSUNNY   89  70  53 S13       29.90F HX  94
HUNTER AAF     SUNNY     87  79  77 SE10      29.88F HX 101
FORT STEWART   SUNNY     90  67  46 S6        29.88F HX  93
STATESBORO     MOSUNNY   89  68  49 S6        29.89S HX  93
SYLVANIA       NOT AVBL
CLAXTON        MOCLDY    88  69  53 S5        29.90S HX  93

...CSRA...CENTRAL AND FAR SOUTHEAST GEORGIA...

CITY           SKY/WX    TMP DP  RH WIND       PRES   REMARKS
THOMSON        SUNNY     93  67  43 W7        29.91S HX  96
AUGUSTA-BUSH   CLOUDY    86  68  54 SW6       29.86S
AUGUSTA-DANIEL PTSUNNY   90  65  43 S12       29.87F HX  92
SWAINSBORO     FAIR      88  70  55 S7        29.90S HX  92
VIDALIA        PTSUNNY   84  72  65 SW12G17   29.91R
EASTMAN        CLOUDY    84  63  48 CALM      29.92S
HAZLEHURST     FAIR      90  70  50 N10       29.89S HX  95
ALMA           MOSUNNY   90  68  48 VRB7      29.90F HX  94
WAYCROSS         N/A     91  74  56 S15       29.92R HX 100
JESUP          FAIR      91  73  55 S6        29.90F HX 100
BAXLEY         PTSUNNY   86  79  79 CALM      29.90F HX  99
BRUNSWICK      MOSUNNY   86  75  70 SE9       29.93R HX  95
SAINT SIMONS   MOSUNNY   85  73  67 SE9       29.92F HX  91

$$

SCZ027-028-034-036>038-045-046-048>050-GAZ119-141-282200-
...LAKE AND SUPPLEMENTAL COASTAL OBSERVATIONS...

STATION/POSITION TIME  TEMP    WIND        PRES    WAVE   SWELL
                       AIR SEA DIR/SP/G            HT/PER HT/PER/DIR
                 (UTC) (F)     (DEG/KT/KT) (MB)    (FT/S) (FT/S/D)
WINYAH BAY       2030   83     190/ 11     1013.0S
LAKE MURRAY      2050   86     220/  3/  7 1010.5F
ACE BASIN NERRS  2045   85     160/  1     1013.0F
FORT PULASKI     2100   85 82  150/  8/ 12 1013.3
SAPELO ISLAND    2100   86     160/  9     1013.0

$$

ANZ835-935-AMZ111-154-330-350-352-354-370-450-454-472-282200-
...C-MAN AND BUOY OBSERVATIONS...

STATION/POSITION TIME  TEMP    WIND        PRES    WAVE   SWELL
                       AIR SEA DIR/SP/G            HT/PER HT/PER/DIR
                 (UTC) (F)     (DEG/KT/KT) (MB)    (FT/S) (FT/S/D)
BUOY 41004       2050   82 83  190/  6/  8 1013.6F   3/10   2/110/10
BUOY 41008       2050   82 83  170/  8/ 10 1013.0F   2/11   2/100/11
FOLLY BEACH CMAN 2100   81     190/ 13/ 14 1013.6F
CAPERS NEARSHORE 2108   82 82  200/ 12/ 16 1013.2F
FRIPP NEARSHORE  2108   82 82  180/ 14/ 17 1013.1F


STATION/POSITION TIME  TEMP    WIND        PRES    WAVE   SWELL
                       AIR SEA DIR/SP/G            HT/PER HT/PER/DIR
                 (UTC) (F)     (DEG/KT/KT) (MB)    (FT/S) (FT/S/D)
5E ST. MARYS GA  2101      83                N/A     2/12   2/100/12
FRYING PAN BUOY  2110   81 83  170/  6/ 12 1013.9
BUOY 41025       2050   78 84   50/  6/  8 1015.0F   3/ 8   3/ 80/ 8
CAPE LOOKOUT NC  2100   79     140/  7/  8 1014.4F
BUOY 41002       2050   82 83  220/ 14/ 16 1014.9S   4/ 6   3/ 70/10
BUOY 41010       NOT AVBL
ST AUGUSTINE FL  2100   79 84  240/  4/  5 1015.2F


$$




USA.gov is the U.S. government's official web portal to all federal, state and local government web resources and services.